This is the latest recevied weather packets stored in our database for station/object IT9CNT. If no packets are shown the sender has not sent any weather packets the latest 10 day(s).
| Time | Temp. | Humidity | Pressure | Rain* | Wind** | Luminosity | Snow |
|---|---|---|---|---|---|---|---|
| 1787639583 | 30° C | 72% | 1012.9 hPa | 0 mm | - | - | - |
| 1787639523 | 29.44° C | 72% | 1012.9 hPa | 0 mm | - | - | - |
| 1787639463 | 29.44° C | 72% | 1012.8 hPa | 0 mm | - | - | - |
| 1787639403 | 29.44° C | 72% | 1012.9 hPa | 0 mm | - | - | - |
| 1787639343 | 30° C | 72% | 1012.6 hPa | 0 mm | - | - | - |
| 1787639283 | 30° C | 72% | 1012.9 hPa | 0 mm | - | - | - |
| 1787639223 | 30° C | 72% | 1013 hPa | 0 mm | - | - | - |
| 1787639163 | 29.44° C | 73% | 1012.7 hPa | 0 mm | - | - | - |
| 1787639103 | 29.44° C | 73% | 1012.8 hPa | 0 mm | - | - | - |
| 1787639043 | 28.89° C | 74% | 1012.8 hPa | 0 mm | - | - | - |
| 1787638983 | 28.89° C | 75% | 1012.7 hPa | 0 mm | - | - | - |
| 1787638923 | 28.89° C | 74% | 1012.9 hPa | 0 mm | - | - | - |
| 1787638863 | 28.89° C | 74% | 1012.8 hPa | 0 mm | - | - | - |
| 1787638803 | 28.89° C | 75% | 1013 hPa | 0 mm | - | - | - |
| 1787638743 | 28.89° C | 75% | 1012.8 hPa | 0 mm | - | - | - |
| 1787638683 | 28.89° C | 75% | 1012.8 hPa | 0 mm | - | - | - |
| 1787638623 | 28.89° C | 76% | 1012.8 hPa | 0 mm | - | - | - |
| 1787638563 | 28.33° C | 75% | 1012.9 hPa | 0 mm | - | - | - |
| 1787638503 | 28.33° C | 75% | 1012.9 hPa | 0 mm | - | - | - |
| 1787638443 | 28.33° C | 75% | 1012.8 hPa | 0 mm | - | - | - |
| 1787638383 | 28.33° C | 76% | 1012.8 hPa | 0 mm | - | - | - |
| 1787638323 | 28.89° C | 75% | 1012.8 hPa | 0 mm | - | - | - |
| 1787638263 | 28.89° C | 75% | 1013 hPa | 0 mm | - | - | - |
| 1787638203 | 28.89° C | 74% | 1012.9 hPa | 0 mm | - | - | - |
| 1787638143 | 28.89° C | 74% | 1012.9 hPa | 0 mm | - | - | - |
* Rain latest hour (hover to see other rain measurements)
** Current wind speed in m/s (hover to see current wind gust speed)